Regional Weather Roundup
Issued by NWS

Home | Current Version | Previous Version | Graphics & Text | Print | Product List | Glossary On
Versions: 1 2 3 4 5 6 7 8 9 10 11 12 13 14 15 16 17 18 19 20 21 22 23 24 25 26 27 28 29 30 31 32 33 34 35 36 37 38 39 40 41 42 43 44 45 46 47 48 49 50
000
ASUS43 KIND 032209
RWRIN

WEATHER ROUNDUP FOR INDIANA
NATIONAL WEATHER SERVICE INDIANAPOLIS IN
500 PM EST TUE MAR 03 2015

NOTE: "FAIR" INDICATES FEW OR NO CLOUDS BELOW 12,000 FEET WITH NO
SIGNIFICANT WEATHER AND/OR OBSTRUCTIONS TO VISIBILITY.

* - STATION DOES NOT REPORT WEATHER SUCH AS PRECIPITATION OR FOG.

+ - STATION NOT QUALITY CONTROLLED BY THE NATIONAL WEATHER SERVICE.
    USE DATA WITH CAUTION...ESPECIALLY DEWPOINT AND RELATIVE
    HUMIDITY OBSERVATIONS.

INZ001>003-010>013-019-020-032300-
NORTHWEST INDIANA

CITY           SKY/WX    TMP DP  RH WIND       PRES   REMARKS
GARY /AIRPORT/ CLOUDY    37  30  75 W17G32    29.68R
KNOX *+          N/A     34  32  93 W17G26    29.69R WCI  23
LA PORTE +     CLOUDY    37  36  95 W16G29    29.68R
MICHIGAN CITY+ CLOUDY    36  32  87 W14       29.68R
MONTICELLO +   CLOUDY    36  35  97 W13       29.72R
RENSSELAER +   CLOUDY    36  36 100 W17G23    29.72R
VALPARAISO     CLOUDY    35  34  96 W18       29.69R WCI  24

$$

LMZ046-743>745-032300-
SOUTHERN LAKE MICHIGAN

STATION/POSITION TIME  TEMP WIND        PRES
                       AIR  DIR/SP/G
                 (UTC) (F)  (DEG/KT/KT) (MB)
MICHIGAN CITY    2200   34  230/ 17/ 20   N/A

$$

INZ004-005-014>016-021>024-032300-
NORTH CENTRAL INDIANA

CITY           SKY/WX    TMP DP  RH WIND       PRES   REMARKS
ELKHART        CLOUDY    36  32  87 W16       29.66R FOG
GOSHEN         CLOUDY    36  34  92 W22       29.64S FOG
LOGANSPORT +   CLOUDY    36  36 100 W24G30    29.71S
PERU/GRISSOM   CLOUDY    37  36  95 W21       29.69R
ROCHESTER +    CLOUDY    37  37 100 W18G24    29.70R FOG
SOUTH BEND     CLOUDY    36  32  85 W16       29.67R
WARSAW +       DRIZZLE   36  36 100 W14G26    29.67R

$$

INZ006>009-017-018-025>027-032300-
NORTHEAST INDIANA

CITY           SKY/WX    TMP DP  RH WIND       PRES   REMARKS
ANGOLA *+      CLOUDY    36  30  80 W15       29.61R
AUBURN +       CLOUDY    37  34  87 W12G18    29.65R FOG
FORT WAYNE     DRIZZLE   38  36  92 W23       29.67R FOG
HUNTINGTON +   CLOUDY    37  34  87 W17G26    29.67R FOG

$$

INZ028-029-035-036-043>045-051>053-032300-
WEST CENTRAL INDIANA

CITY           SKY/WX    TMP DP  RH WIND       PRES   REMARKS
CRAWFORDSVL +  CLOUDY    38  35  87 W20G30    29.75R
GREENCASTLE +  LGT RAIN  41  37  87 W10G17    29.76S
LAFAYETTE      CLOUDY    38  36  92 W17G26    29.74R
TERRE HAUTE    LGT RAIN  39  38  96 SW10      29.80R VSB 1

$$

INZ030>032-037>040-046>048-054>057-064-065-032300-
CENTRAL INDIANA

CITY           SKY/WX    TMP DP  RH WIND       PRES   REMARKS
CP ATTERBURY + CLOUDY    46  45  93 W16G25    29.76S
COLUMBUS       RAIN      43  41  93 SW12      29.77S FOG
FRANKFORT +    CLOUDY    38  38 100 SW18G26   29.75R FOG
GREENWOOD *+   CLOUDY    43  39  87 SW15G24   29.75S
INDIANAPOLIS   LGT RAIN  40  38  93 SW16      29.73F FOG
-EAGLE CREEK   LGT RAIN  41  40  96 SW9G21    29.74S
KOKOMO *+      CLOUDY    37  36  93 W20G26    29.71S
MARION +       CLOUDY    37  36  98 W16       29.72R FOG
MT COMFORT *+  CLOUDY    41 N/A N/A SW15      29.73F
SHELBYVILLE    CLOUDY    45  42  89 SW16      29.74F
ZIONSVILLE +   DRIZZLE   40  37  89 W15       29.73S

$$

INZ033-034-041-042-049-050-058-059-032300-
EAST CENTRAL INDIANA

CITY           SKY/WX    TMP DP  RH WIND       PRES   REMARKS
MUNCIE         CLOUDY    40  38  93 W12       29.72R FOG

$$

INZ060-061-067>069-081>083-085>088-032300-
SOUTHWEST INDIANA

CITY           SKY/WX    TMP DP  RH WIND       PRES   REMARKS
EVANSVILLE     RAIN      52  50  93 W10       29.84R FOG
HUNTINGBURG *+ CLOUDY    50  48  93 W13       29.84R
WASHINGTON +   CLOUDY    43  40  88 SW9       29.81R FOG

$$

INZ062-063-066-070>080-084-089>092-032300-
SOUTH CENTRAL AND SOUTHEAST INDIANA

CITY           SKY/WX    TMP DP  RH WIND       PRES   REMARKS
BLOOMINGTON    CLOUDY    44  43  96 SW14G24   29.77S FOG
NORTH VERNON + LGT RAIN  43  43 100 SW8       29.79S VSB 1/4
SEYMOUR +      DRIZZLE   46  46 100 SW18      29.78F

$$




USA.gov is the U.S. government's official web portal to all federal, state and local government web resources and services.